Date String (YYYY-MM-DD hh:mm:ss) UTC,Instrument flags,absolute air pressure of the measurement (hPa),sample flow rate (lpm),inlet stack bypass flow (lpm),air temperature of the measurement (°C),ambient temperature measured by the external sensor (°C),aerosol sample conditioner tube jacket temperature (°C),OPC LED temperature (°C),internal box temperature (°C),relative humidity of the measurement (%),span deviation,mass concentration of particles derived from Lorenz-Mie calculation of OPC scattering (μg/m³),mass concentration of particles derived from Lorenz-Mie calculation of OPC scattering (μg/m³),mass concentration of particles derived from Lorenz-Mie calculation of OPC scattering (μg/m³)
DateTimeUTC,F1_M11,P_M11,Q1_M11,Q2_M11,T1_M11,T2_M11,T3_M11,T4_M11,T5_M11,U1_M11,ZSPAN_M11,X0_M11,X2_M11,X1_M11
2023-07-13 12:00:00,SystemResetWarning,0831.0,5.01,000.00,029.4,028.0,000.0,037.9,031.0,20.6,0000.0,0008.04,0003.52,0003.14
2023-07-13 12:01:00,SystemResetWarning,0830.9,5.01,000.00,029.4,028.1,000.0,037.9,031.0,20.5,0000.0,0007.92,0003.54,0003.15
2023-07-13 12:02:00,SystemResetWarning,0830.9,5.01,000.00,029.4,028.1,000.0,037.9,031.1,21.5,0000.0,0007.73,0003.56,0003.15
2023-07-13 12:03:00,SystemResetWarning,0831.0,4.99,000.00,029.5,028.2,000.0,037.9,031.1,21.4,0000.0,0007.84,0003.60,0003.15
2023-07-13 12:04:00,SystemResetWarning,0831.1,4.99,000.00,029.5,028.3,000.0,037.9,031.1,20.9,0000.0,0007.90,0003.62,0003.15
2023-07-13 12:05:00,SystemResetWarning,0831.2,5.01,000.00,029.5,028.3,000.0,038.0,031.2,21.5,0000.0,0006.86,0003.62,0003.15
2023-07-13 12:06:00,SystemResetWarning,0831.2,5.01,000.00,029.6,028.4,000.0,038.0,031.2,23.3,0000.0,0006.42,0003.62,0003.16
2023-07-13 12:07:00,SystemResetWarning,0831.2,4.99,000.00,029.6,028.4,000.0,038.0,031.2,22.8,0000.0,0006.74,0003.63,0003.17
2023-07-13 12:08:00,SystemResetWarning,0831.2,4.99,000.00,029.6,028.5,000.0,038.0,031.3,22.8,0000.0,0007.48,0003.62,0003.16
2023-07-13 12:09:00,SystemResetWarning,0831.2,5.00,000.00,029.6,028.5,000.0,038.1,031.3,23.7,0000.0,0007.42,0003.59,0003.15
2023-07-13 12:10:00,SystemResetWarning,0831.2,5.01,000.00,029.7,028.6,000.0,038.1,031.3,23.7,0000.0,0007.43,0003.59,0003.16
2023-07-13 12:11:00,SystemResetWarning,0831.2,5.00,000.00,029.7,028.1,000.0,038.1,031.3,23.8,0000.0,0007.48,0003.62,0003.17
2023-07-13 12:12:00,SystemResetWarning,0831.2,5.00,000.00,029.7,026.3,000.0,038.0,031.1,23.7,0000.0,0007.41,0003.64,0003.17
2023-07-13 12:13:00,SystemResetWarning,0831.1,5.01,000.00,029.6,025.6,000.0,037.8,030.9,23.7,0000.0,0007.46,0003.67,0003.18
2023-07-13 12:14:00,SystemResetWarning,0831.1,5.01,000.00,029.5,025.7,000.0,037.9,030.7,23.7,0000.0,0007.41,0003.66,0003.18
2023-07-13 12:15:00,SystemResetWarning,0831.1,5.00,000.00,029.4,026.1,000.0,037.9,030.7,23.8,0000.0,0007.38,0003.65,0003.17
2023-07-13 12:16:00,SystemResetWarning,0831.2,5.01,000.00,029.4,026.5,000.0,037.9,030.8,24.1,0000.0,0007.67,0003.64,0003.17
2023-07-13 12:17:00,SystemResetWarning,0831.2,5.00,000.00,029.4,026.8,000.0,037.9,030.8,24.1,0000.0,0007.99,0003.65,0003.18
2023-07-13 12:18:00,SystemResetWarning,0831.2,5.00,000.00,029.4,027.1,000.0,037.9,030.9,24.2,0000.0,0007.78,0003.65,0003.20
2023-07-13 12:19:00,SystemResetWarning,0831.2,4.99,000.00,029.4,027.4,000.0,037.9,031.0,24.4,0000.0,0007.31,0003.68,0003.22
2023-07-13 12:20:00,SystemResetWarning,0831.2,5.00,000.00,029.4,027.6,000.0,038.0,031.0,24.5,0000.0,0007.39,0003.74,0003.24
2023-07-13 12:21:00,SystemResetWarning,0831.2,5.00,000.00,029.4,027.8,000.0,038.0,031.0,24.3,0000.0,0007.35,0003.74,0003.27
2023-07-13 12:22:00,SystemResetWarning,0831.2,5.01,000.00,029.5,027.9,000.0,038.0,031.1,24.1,0000.0,0007.31,0003.74,0003.28
2023-07-13 12:23:00,SystemResetWarning,0831.2,5.00,000.00,029.5,028.0,000.0,038.0,031.1,23.9,0000.0,0007.23,0003.72,0003.29
2023-07-13 12:24:00,SystemResetWarning,0831.2,4.99,000.00,029.5,028.2,000.0,038.0,031.1,23.7,0000.0,0007.34,0003.71,0003.30
2023-07-13 12:25:00,SystemResetWarning,0831.3,5.00,000.00,029.5,028.3,000.0,038.0,031.2,23.8,0000.0,0007.80,0003.73,0003.30
2023-07-13 12:26:00,SystemResetWarning,0831.3,5.01,000.00,029.6,028.3,000.0,038.0,031.2,23.6,0000.0,0007.82,0003.74,0003.32
2023-07-13 12:27:00,SystemResetWarning,0831.3,5.01,000.00,029.6,028.4,000.0,038.0,031.2,23.5,0000.0,0007.52,0003.79,0003.33
2023-07-13 12:28:00,SystemResetWarning,0831.3,5.00,000.00,029.6,028.5,000.0,038.1,031.3,23.5,0000.0,0007.86,0003.84,0003.34
2023-07-13 12:29:00,SystemResetWarning,0831.3,4.99,000.00,029.7,028.5,000.0,038.1,031.3,23.3,0000.0,0008.04,0003.84,0003.34
2023-07-13 12:30:00,SystemResetWarning,0831.3,5.00,000.00,029.7,028.6,000.0,038.1,031.3,23.1,0000.0,0008.01,0003.83,0003.34
2023-07-13 12:31:00,SystemResetWarning,0831.3,4.99,000.00,029.7,028.4,000.0,038.1,031.3,23.0,0000.0,0007.99,0003.80,0003.33
2023-07-13 12:32:00,SystemResetWarning,0831.3,5.00,000.00,029.7,026.8,000.0,038.0,031.2,23.0,0000.0,0008.12,0003.78,0003.33
2023-07-13 12:33:00,SystemResetWarning,0831.3,5.01,000.00,029.6,025.8,000.0,037.9,030.9,23.2,0000.0,0008.95,0003.77,0003.32
2023-07-13 12:34:00,SystemResetWarning,0831.3,5.01,000.00,029.5,025.8,000.0,037.9,030.7,23.9,0000.0,0008.95,0003.79,0003.33
2023-07-13 12:35:00,SystemResetWarning,0831.3,5.00,000.00,029.4,026.1,000.0,037.9,030.7,23.8,0000.0,0008.74,0003.78,0003.34
2023-07-13 12:36:00,SystemResetWarning,0831.3,5.00,000.00,029.4,026.5,000.0,037.9,030.8,24.5,0000.0,0008.33,0003.77,0003.34
2023-07-13 12:37:00,SystemResetWarning,0831.3,4.99,000.00,029.4,026.8,000.0,038.0,030.8,25.1,0000.0,0008.38,0003.78,0003.34
2023-07-13 12:38:00,SystemResetWarning,0831.4,5.00,000.00,029.4,027.1,000.0,038.0,030.9,23.9,0000.0,0008.29,0003.76,0003.35
2023-07-13 12:39:00,SystemResetWarning,0831.3,5.00,000.00,029.4,027.4,000.0,038.0,030.9,23.7,0000.0,0007.67,0003.71,0003.35
2023-07-13 12:40:00,SystemResetWarning,0831.3,4.99,000.00,029.4,027.6,000.0,038.0,031.0,23.2,0000.0,0007.53,0003.72,0003.34
2023-07-13 12:41:00,SystemResetWarning,0831.3,5.00,000.00,029.5,027.8,000.0,038.0,031.0,23.0,0000.0,0007.52,0003.70,0003.33
2023-07-13 12:42:00,SystemResetWarning,0831.3,5.01,000.00,029.5,027.9,000.0,038.0,031.1,23.3,0000.0,0007.51,0003.73,0003.33
2023-07-13 12:43:00,SystemResetWarning,0831.4,5.00,000.00,029.5,028.1,000.0,038.0,031.1,23.0,0000.0,0007.42,0003.75,0003.33
2023-07-13 12:44:00,SystemResetWarning,0831.4,5.00,000.00,029.5,028.2,000.0,038.0,031.2,22.7,0000.0,0006.21,0003.77,0003.33
2023-07-13 12:45:00,SystemResetWarning,0831.4,5.00,000.00,029.6,028.3,000.0,038.0,031.2,22.7,0000.0,0006.32,0003.78,0003.33
2023-07-13 12:46:00,SystemResetWarning,0831.4,5.01,000.00,029.6,028.3,000.0,038.1,031.2,22.5,0000.0,0006.66,0003.85,0003.33
2023-07-13 12:47:00,SystemResetWarning,0831.4,5.00,000.00,029.6,028.4,000.0,038.1,031.3,22.5,0000.0,0006.67,0003.85,0003.32
2023-07-13 12:48:00,SystemResetWarning,0831.4,5.00,000.00,029.7,028.5,000.0,038.1,031.3,22.4,0000.0,0006.68,0003.86,0003.32
2023-07-13 12:49:00,SystemResetWarning,0831.4,4.98,000.00,029.7,027.9,000.0,038.1,031.3,22.7,0000.0,0006.67,0003.85,0003.32
2023-07-13 12:50:00,SystemResetWarning,0831.4,5.01,000.00,029.7,026.3,000.0,037.9,031.0,24.1,0000.0,0006.76,0003.87,0003.31
2023-07-13 12:51:00,SystemResetWarning,0831.4,5.01,000.00,029.6,026.0,000.0,037.9,030.9,22.8,0000.0,0006.86,0003.90,0003.31
2023-07-13 12:52:00,SystemResetWarning,0831.4,5.00,000.00,029.5,026.2,000.0,037.9,030.8,23.4,0000.0,0006.98,0003.92,0003.32
2023-07-13 12:53:00,SystemResetWarning,0831.4,5.00,000.00,029.5,026.5,000.0,037.9,030.8,22.6,0000.0,0007.01,0003.91,0003.31
2023-07-13 12:54:00,SystemResetWarning,0831.4,5.00,000.00,029.4,026.8,000.0,038.0,030.9,21.8,0000.0,0007.37,0003.90,0003.30
2023-07-13 12:55:00,SystemResetWarning,0831.5,5.00,000.00,029.4,027.1,000.0,038.0,030.9,21.7,0000.0,0007.47,0003.89,0003.29
2023-07-13 12:56:00,SystemResetWarning,0831.5,5.00,000.00,029.5,027.4,000.0,038.0,031.0,21.5,0000.0,0007.62,0003.86,0003.28
2023-07-13 12:57:00,SystemResetWarning,0831.6,5.00,000.00,029.5,027.6,000.0,038.0,031.0,22.3,0000.0,0008.21,0003.82,0003.28
2023-07-13 12:58:00,SystemResetWarning,0831.5,5.00,000.00,029.5,027.8,000.0,038.0,031.1,22.5,0000.0,0008.19,0003.80,0003.27
2023-07-13 12:59:00,SystemResetWarning,0831.6,5.00,000.00,029.5,027.9,000.0,038.0,031.1,22.4,0000.0,0008.20,0003.81,0003.29
